THORAD AGENA D DEB, 4867

Orbit data source: Space-Track

THORAD AGENA D DEB, 4867 is space debris in SSO originally from a launch on Wed, 08 Apr 1970 UTC launched from the Air Force Western Test Range (AFWTR). Debris objects in space refer to the collection of defunct objects orbiting the Earth. Examples of debris include non-operational satellites, rocket bodies, and fragments generated from explosions, collisions, or faulty payload assembly.

Loading next visibility...
Identifier
4867, 1970-025EX
Orbit
SSO
Country
Flag of USUS
Related business
Manufacturer
Unknown
Mission
Spacecraft
Bus & Motor
Unknown
Mass
Unknown
Launch date (UTC)
1970-04-08 (56 years ago)
Launch vehicle
Unknown
Launch site
Air Force Western Test Range (AFWTR)
Object type
Payload
Rocket body
Debris
Shape & HBR
Unknown shape, 0.1 m
Radar Cross Section
Small (<0.1 m²)

Expand to show TLE details & history
Last TLE update: 18 hours ago

TLE from 18 hours ago
0 THORAD AGENA D DEB
1 04867U 70025EX  25352.76577740  .00000073  00000-0  75974-4 0  9995
2 04867  99.6184 281.5909 0122862 245.1216 113.7134 14.01575915829467
Epoch: 2025-12-18T18:22Z
TLE epoch observation values (Epoch: 2025-12-18T18:22:43.167Z)
Latitude
-0.00001°
Longitude
-81.70554°
Altitude
928.026 km
Speed
7.369 km/s
True Right ascension
18h 46m 21s
True Declination
0° 00' 00"
Sunlit
Object was in daylight at epoch
Visualization orbit readout
Latitude
Unknown
Longitude
Unknown
Altitude
Unknown
Speed
Unknown
Apparent Right ascension
Unknown
Apparent Declination
Unknown
Sunlit
N/A
Visualization observer readout
Local Sidereal Time
10:57:25
Azimuth
Unknown
Elevation
Unknown
Doppler factor
Unknown
Orbital elements
Apogee altitude
974.814 km
Perigee altitude
796.328 km
Semi-major axis
7,263.708 km
Eccentricity
0.01229
Inclination
99.6184°
RAAN
281.5909°
Arg. of periapsis
245.1216°
True anomaly
114.9944°
Mean anomaly
113.7134°
Eccentric anomaly
114.3547°
Mean motion
3.50595 °/min
Orbital period
102.68 mins
BSTAR
0.000075974

Documentation

Showing up to 5 results
|